This is the latest recevied weather packets stored in our database for station/object K1RFS. If no packets are shown the sender has not sent any weather packets the latest 10 day(s).
| Time | Temp. | Humidity | Pressure | Rain* | Wind** | Luminosity | Snow |
|---|---|---|---|---|---|---|---|
| 1788568940 | 29.44° C | 21% | 997.7 hPa | 0 mm | - | 61 W/m² | - |
| 1788568640 | 30° C | 20% | 997.6 hPa | 0 mm | - | 66 W/m² | - |
| 1788568336 | 30° C | 20% | 997.5 hPa | 0 mm | - | 69 W/m² | - |
| 1788568031 | 30° C | 20% | 997.4 hPa | 0 mm | - | 72 W/m² | - |
| 1788567731 | 30.56° C | 20% | 997.3 hPa | 0 mm | - | 109 W/m² | - |
| 1788567426 | 31.11° C | 19% | 997.5 hPa | 0 mm | - | 122 W/m² | - |
| 1788567125 | 31.11° C | 19% | 997.7 hPa | 0 mm | - | 131 W/m² | - |
| 1788566821 | 31.11° C | 19% | 997.5 hPa | 0 mm | - | 152 W/m² | - |
| 1788566517 | 31.11° C | 19% | 997.6 hPa | 0 mm | - | 160 W/m² | - |
| 1788566216 | 31.11° C | 19% | 997.7 hPa | 0 mm | - | 172 W/m² | - |
| 1788565911 | 31.11° C | 18% | 997.5 hPa | 0 mm | - | 182 W/m² | - |
| 1788565606 | 31.11° C | 18% | 997.6 hPa | 0 mm | - | 200 W/m² | - |
| 1788565302 | 31.11° C | 18% | 997.8 hPa | 0 mm | - | 205 W/m² | - |
| 1788564997 | 31.11° C | 18% | 997.7 hPa | 0 mm | - | 228 W/m² | - |
| 1788564693 | 31.11° C | 17% | 997.8 hPa | 0 mm | - | 239 W/m² | - |
| 1788564390 | 31.67° C | 17% | 997.7 hPa | 0 mm | - | 257 W/m² | - |
| 1788564086 | 31.67° C | 17% | 997.8 hPa | 0 mm | - | 275 W/m² | - |
| 1788563780 | 31.67° C | 17% | 997.7 hPa | 0 mm | - | 283 W/m² | - |
| 1788563475 | 31.67° C | 17% | 997.8 hPa | 0 mm | - | 294 W/m² | - |
| 1788563174 | 31.67° C | 17% | 998 hPa | 0 mm | - | 307 W/m² | - |
| 1788562870 | 32.22° C | 16% | 998.1 hPa | 0 mm | - | 315 W/m² | - |
| 1788562567 | 31.67° C | 17% | 997.8 hPa | 0 mm | - | 323 W/m² | - |
| 1788562262 | 31.67° C | 16% | 998 hPa | 0 mm | - | 339 W/m² | - |
| 1788561957 | 31.67° C | 16% | 998.2 hPa | 0 mm | - | 345 W/m² | - |
| 1788561652 | 31.67° C | 16% | 997.8 hPa | 0 mm | - | 358 W/m² | - |
* Rain latest hour (hover to see other rain measurements)
** Current wind speed in m/s (hover to see current wind gust speed)